Hourly Data Report for October 15, 2016

All times are specified in Local Standard Time (LST). Add 1 hour to adjust for Daylight Saving Time where and when it is observed.

TORONTO INTL A
ONTARIO

43°40'36.000" N
79°37'50.000" W
173.40 m
6158731
71624
YYZ

Download Data

Hourly Data (October 2016)
Hourly Data Report for October 15, 2016
Temp Definition
°C
Dew Point Temp Definition
°C
Rel Hum Definition
%
Wind Dir Definition
10's deg

Wind Spd Definition
km/h
Visibility Definition
km
Stn Press Definition
kPa
Hmdx Definition


Wind Chill Definition


Weather Definition


TIME
00:00 Legend Double Dagger 10.8 4.7 66 14 7 24.1 100.35     LegendNANA
01:00 Legend Double Dagger 10.9 5.9 71 15 5 24.1 100.36     Clear
02:00 Legend Double Dagger 10.3 5.9 74 16 5 24.1 100.31     LegendNANA
03:00 Legend Double Dagger 10.1 7.0 81 14 4 24.1 100.27     LegendNANA
04:00 Legend Double Dagger 8.9 5.7 80 36 1 24.1 100.26     Clear
05:00 Legend Double Dagger 8.8 7.1 89 14 5 24.1 100.27     LegendNANA
06:00 Legend Double Dagger 10.2 7.5 83 15 4 24.1 100.30     LegendNANA
07:00 Legend Double Dagger 9.0 6.5 84 14 4 24.1 100.30     Mostly Cloudy
08:00 Legend Double Dagger 9.8 7.2 84 22 3 24.1 100.31     LegendNANA
09:00 Legend Double Dagger 13.7 9.4 75 16 13 24.1 100.29     LegendNANA
10:00 Legend Double Dagger 15.4 8.5 63 17 12 24.1 100.25     Mainly Clear
11:00 Legend Double Dagger 16.6 7.6 55 17 13 24.1 100.19     LegendNANA
12:00 Legend Double Dagger 17.4 7.8 53 19 13 24.1 100.13     LegendNANA
13:00 Legend Double Dagger 17.7 9.2 57 15 14 24.1 100.04     Mainly Clear
14:00 Legend Double Dagger 18.3 8.9 54 15 21 24.1 99.96     LegendNANA
15:00 Legend Double Dagger 18.6 9.2 54 14 16 24.1 99.87     LegendNANA
16:00 Legend Double Dagger 18.6 10.8 60 14 18 24.1 99.82     Mostly Cloudy
17:00 Legend Double Dagger 18.2 11.4 64 15 19 24.1 99.78     LegendNANA
18:00 Legend Double Dagger 17.1 12.7 75 13 15 24.1 99.75     LegendNANA
19:00 Legend Double Dagger 15.8 13.1 84 12 9 24.1 99.73     Mostly Cloudy
20:00 Legend Double Dagger 16.2 13.4 83 13 9 24.1 99.66     LegendNANA
21:00 Legend Double Dagger 16.2 13.9 86 15 9 24.1 99.60     LegendNANA
22:00 Legend Double Dagger 16.3 13.8 85 15 9 24.1 99.55     Cloudy
23:00 Legend Double Dagger 17.3 13.9 80 19 9 24.1 99.53     LegendNANA

Notes on Data Quality.

Legend

  • E = Estimated
  • M = Missing
  • NA = Not Available
  • ‡ = Partner data that is not subject to review by the National Climate Archives
Date modified: